WAYLND-WX Weather Reports


time (UTC)temp
C
wind
direction
speed
KPH
gust
KPH
rain 1hr
cm
rain 24hr
cm
rain mn
cm
humidity
%
barometer
mb
20260509054543 7 159 11.3 0.0 0.00 0.00 0.00 49 979.4
20260509053058 7 157 14.5 0.0 0.00 0.00 0.00 55 978.8
20260509051541 7 157 12.9 0.0 0.00 0.00 0.00 55 978.8
20260509050114 7 154 11.3 0.0 0.00 0.00 0.00 55 978.8
20260509044542 7 154 9.7 0.0 0.00 0.00 0.00 49 979.8
20260509043058 7 163 11.3 0.0 0.00 0.00 0.00 50 978.6
20260509041541 8 157 9.7 0.0 0.00 0.00 0.00 50 978.7
20260509040117 8 158 11.3 0.0 0.00 0.00 0.00 50 978.7
20260509034542 8 166 9.7 0.0 0.00 0.00 0.00 46 979.5
20260509033057 8 174 9.7 0.0 0.00 0.00 0.00 49 980.2
20260509031541 8 167 9.7 0.0 0.00 0.00 0.00 49 980.2
20260509030114 8 164 9.7 0.0 0.00 0.00 0.00 49 980.2
20260509024541 9 162 9.7 0.0 0.00 0.00 0.00 26 980.4
20260509023100 10 163 9.7 0.0 0.00 0.00 0.00 34 980.5
20260509021542 10 186 9.7 0.0 0.00 0.00 0.00 34 980.5
20260509020111 10 191 6.4 0.0 0.00 0.00 0.00 34 980.5
20260509014541 11 195 6.4 0.0 0.00 0.00 0.00 42 980.3
20260509013056 11 205 6.4 0.0 0.00 0.00 0.00 42 980.3
20260509011541 11 234 4.8 0.0 0.00 0.00 0.00 42 980.3
20260509010108 12 262 4.8 0.0 0.00 0.00 0.00 42 980.3
20260509004540 12 273 4.8 0.0 0.00 0.00 0.00 36 979.9
20260509003059 12 259 6.4 0.0 0.00 0.00 0.00 33 981.2
20260509001540 13 267 6.4 0.0 0.00 0.00 0.00 33 981.2
20260509000118 13 267 6.4 0.0 0.00 0.00 0.00 33 981.2
20260508234541 14 270 9.7 0.0 0.00 0.00 0.00 27 980.5
20260508233101 15 267 11.3 0.0 0.00 0.00 0.00 25 981.1
20260508231543 15 267 11.3 0.0 0.00 0.00 0.00 25 981.1
20260508230106 15 273 12.9 0.0 0.00 0.00 0.00 25 981.1
20260508224542 15 276 12.9 0.0 0.00 0.00 0.00 25 981.2
20260508223101 15 280 16.1 0.0 0.00 0.00 0.00 23 982.0
20260508221544 15 279 16.1 0.0 0.00 0.00 0.00 23 982.0
20260508220108 15 278 17.7 0.0 0.00 0.00 0.00 23 982.0
20260508214543 16 277 17.7 0.0 0.00 0.00 0.00 22 982.6
20260508213100 16 270 17.7 0.0 0.00 0.00 0.00 24 982.0
20260508211543 16 258 16.1 0.0 0.00 0.00 0.00 24 982.0
20260508210112 16 257 16.1 0.0 0.00 0.00 0.00 24 982.0
20260508204543 16 254 17.7 0.0 0.00 0.00 0.00 25 982.4
20260508203101 16 252 17.7 0.0 0.00 0.00 0.00 22 981.9
20260508201543 16 247 16.1 0.0 0.00 0.00 0.00 22 981.9
20260508200109 16 249 16.1 0.0 0.00 0.00 0.00 22 981.9
20260508194543 16 250 16.1 0.0 0.00 0.00 0.00 21 982.2
20260508193058 17 248 14.5 0.0 0.00 0.00 0.00 21 982.2
20260508191542 16 259 14.5 0.0 0.00 0.00 0.00 21 982.2
20260508190106 16 260 16.1 0.0 0.00 0.00 0.00 21 982.2
20260508184543 16 261 14.5 0.0 0.00 0.00 0.00 26 982.7
20260508183102 16 250 16.1 0.0 0.00 0.00 0.00 30 982.3
20260508181543 16 242 14.5 0.0 0.00 0.00 0.00 30 982.3
20260508180112 16 240 14.5 0.0 0.00 0.00 0.00 30 982.3
20260508174543 16 242 14.5 0.0 0.00 0.00 0.00 33 983.3
20260508173101 15 249 16.1 0.0 0.00 0.00 0.00 33 983.3
20260508171543 15 243 16.1 0.0 0.00 0.00 0.00 33 983.3
20260508170108 15 241 14.5 0.0 0.00 0.00 0.00 33 983.3
20260508164542 15 240 14.5 0.0 0.00 0.00 0.00 34 983.5
20260508163101 15 236 14.5 0.0 0.00 0.00 0.00 34 983.8
20260508161543 13 234 12.9 0.0 0.00 0.00 0.00 34 983.8
20260508160113 13 236 12.9 0.0 0.00 0.00 0.00 34 983.8
20260508154543 13 230 11.3 0.0 0.00 0.00 0.00 44 984.7
20260508153103 12 207 11.3 0.0 0.00 0.00 0.00 51 983.7
20260508151543 12 198 9.7 0.0 0.00 0.00 0.00 51 983.7
20260508150112 11 201 9.7 0.0 0.00 0.00 0.00 51 983.7
20260508144543 11 196 8.0 0.0 0.00 0.00 0.00 65 983.8
20260508143100 11 195 9.7 0.0 0.00 0.00 0.00 58 984.0
20260508141544 10 186 9.7 0.0 0.00 0.00 0.00 58 984.0
20260508140120 10 180 8.0 0.0 0.00 0.00 0.00 60 983.8
20260508134543 10 175 6.4 0.0 0.00 0.00 0.00 68 983.6
20260508133058 8 178 9.7 0.0 0.00 0.00 0.00 68 983.6
20260508131543 7 178 9.7 0.0 0.00 0.00 0.00 68 983.6
20260508130116 7 176 8.0 0.0 0.00 0.00 0.00 68 983.6
20260508124543 6 176 8.0 0.0 0.00 0.00 0.00 83 983.0
20260508123102 6 182 8.0 0.0 0.00 0.00 0.00 83 983.6
20260508121543 5 177 6.4 0.0 0.00 0.00 0.00 83 983.6
20260508120124 4 163 4.8 0.0 0.00 0.00 0.00 83 983.6
20260508114543 3 159 4.8 0.0 0.00 0.00 0.00 84 983.1
20260508113105 2 156 4.8 0.0 0.00 0.00 0.00 83 983.7
20260508111542 2 139 6.4 0.0 0.00 0.00 0.00 83 983.7
20260508110109 2 146 8.0 0.0 0.00 0.00 0.00 83 983.7
20260508104545 2 144 8.0 0.0 0.00 0.00 0.00 81 982.7
20260508103102 2 135 8.0 0.0 0.00 0.00 0.00 80 983.8
20260508101546 2 139 6.4 0.0 0.00 0.00 0.00 80 983.9
20260508100109 2 133 4.8 0.0 0.00 0.00 0.00 80 983.9
20260508094544 2 128 4.8 0.0 0.00 0.00 0.00 79 983.1
20260508093058 2 128 4.8 0.0 0.00 0.00 0.00 82 983.8
20260508091545 3 128 4.8 0.0 0.00 0.00 0.00 82 983.8
20260508090113 3 130 4.8 0.0 0.00 0.00 0.00 82 983.8
20260508084545 3 120 4.8 0.0 0.00 0.00 0.00 84 983.3
20260508083103 3 151 6.4 0.0 0.00 0.00 0.00 81 983.1
20260508081544 3 171 6.4 0.0 0.00 0.00 0.00 81 983.2
20260508080115 3 166 6.4 0.0 0.00 0.00 0.00 81 983.2
20260508074545 3 161 6.4 0.0 0.00 0.00 0.00 82 984.0
20260508073103 3 164 6.4 0.0 0.00 0.00 0.00 82 984.0
20260508071544 3 180 4.8 0.0 0.00 0.00 0.00 82 984.0
20260508070115 3 180 6.4 0.0 0.00 0.00 0.00 82 984.0
20260508064543 4 180 6.4 0.0 0.00 0.00 0.00 78 983.7
20260508063100 4 175 6.4 0.0 0.00 0.00 0.00 79 984.0
20260508061543 5 173 4.8 0.0 0.00 0.00 0.00 79 984.1
20260508060127 5 180 3.2 0.0 0.00 0.00 0.00 79 984.1